Wind_Speed
25 26 26 25 24 25 27 29 30 30 30 31 32 30 30 30 31 31 30 29 28 27 27 26 25 25 24 24 23 22 22 21 21 22 22 23 24 24 24 24 25 25 25 25 25 25 24 24 24 24 23 22 21 19 18 16 14 13 12 12 11 8 6 7 6 4 3 3 3 2 1 1 2 4 6 6 6 6 6 6 6 7 6 5 5 4 5 4
25 25 25 24 24 24 26 28 29 30 30 32 32 30 29 30 30 30 29 29 28 28 27 26 26 25 25 24 23 22 21 21 21 22 22 23 24 24 24 25 25 25 25 25 25 24 24 23 23 23 24 23 21 20 18 17 15 14 13 13 12 9 6 7 7 5 3 3 2 1 2 1 1 3 5 6 6 6 7 7 7 7 7 7 6 5 5 5
25 24 24 23 23 24 25 27 28 29 30 32 32 30 30 30 30 29 28 29 29 28 27 27 26 26 25 23 22 21 21 22 22 22 23 24 24 24 24 25 25 25 25 25 25 24 24 23 23 23 24 23 22 21 19 18 16 15 15 14 12 9 7 7 7 6 4 3 2 2 3 2 2 3 4 5 7 7 7 7 7 7 7 8 8 7 6 6
25 24 23 23 23 24 24 26 28 29 31 32 32 31 31 32 31 29 29 29 29 28 28 27 26 26 25 23 22 21 22 22 22 23 23 24 24 24 24 24 25 24 24 24 25 25 24 24 23 23 24 23 23 21 20 19 17 16 16 15 13 10 8 7 7 6 5 4 4 3 4 4 3 3 4 5 6 6 6 7 7 8 8 9 9 8 7 7
25 24 23 23 23 23 24 25 27 29 31 33 33 32 33 33 32 31 30 29 28 28 28 27 27 25 24 23 22 22 23 22 23 23 23 24 24 24 24 24 24 24 24 24 24 25 24 24 24 24 24 23 23 22 21 20 18 17 17 16 14 12 10 9 9 7 6 6 5 4 5 4 4 4 5 5 4 4 7 7 8 8 9 10 10 10 9 8
25 24 23 23 23 23 23 25 27 29 31 33 33 33 34 34 33 32 30 29 28 28 27 27 26 25 23 23 23 23 24 22 22 24 23 23 23 23 24 23 24 24 23 24 24 24 24 24 24 23 23 22 22 21 21 20 19 18 17 16 15 14 12 11 10 9 8 7 6 6 5 5 5 5 5 5 4 6 8 7 8 8 9 10 11 10 9 8
26 25 24 23 23 23 24 25 26 28 31 32 33 34 34 33 32 32 31 30 29 28 27 26 25 24 23 23 23 24 24 21 21 24 23 23 23 23 23 23 23 23 23 23 23 24 24 23 23 22 22 21 21 21 20 20 19 18 17 16 15 15 14 13 12 10 9 8 7 7 6 6 6 6 5 4 5 7 7 7 8 8 8 9 9 9 9 10
26 25 24 24 23 23 24 25 26 28 30 32 33 33 33 32 31 30 30 29 29 28 26 25 24 24 24 24 23 24 24 22 21 23 23 23 23 23 23 23 22 22 23 23 23 23 23 22 21 21 21 21 21 20 20 19 19 18 16 15 15 15 16 15 13 11 10 9 8 8 7 7 7 7 4 3 7 8 7 8 8 8 8 7 8 8 9 10
27 26 25 25 24 24 25 26 26 27 29 32 32 32 31 30 29 29 28 28 28 27 26 25 24 24 24 24 24 24 24 23 22 23 23 23 23 23 23 22 22 21 22 22 22 22 21 20 20 19 18 19 19 19 19 19 18 17 16 15 15 15 16 16 14 13 11 10 10 9 9 9 8 7 4 5 9 8 7 6 6 7 7 7 8 8 9 10
28 27 26 25 25 25 26 26 27 28 29 30 30 30 29 29 28 27 27 27 27 26 25 25 25 24 24 24 24 24 24 22 22 24 24 23 23 22 22 22 21 21 21 21 20 19 18 18 17 17 17 17 18 18 18 18 17 17 17 16 16 15 15 15 15 14 13 12 11 10 10 10 10 7 4 7 10 9 7 6 6 6 6 7 8 8 9 10
29 28 27 26 26 26 26 26 27 28 28 28 28 28 28 28 27 27 26 26 26 25 25 25 25 25 24 24 24 23 23 22 22 24 24 24 23 22 22 22 21 20 20 19 18 18 17 16 16 16 16 17 17 17 17 18 16 15 16 16 15 15 15 16 16 15 14 13 11 11 11 11 11 6 5 10 10 8 8 8 7 6 6 7 8 9 9 9
29 29 28 27 26 26 26 27 27 28 27 27 26 27 27 27 26 26 26 26 25 25 25 25 25 25 24 24 23 23 23 22 23 25 25 25 24 23 22 21 21 20 20 19 18 17 17 16 16 16 16 16 17 15 15 17 16 15 15 16 16 16 16 16 16 15 14 14 12 11 11 12 11 6 8 12 10 9 9 8 8 8 8 8 8 9 8 9
28 29 29 28 27 27 27 27 27 28 27 26 26 26 26 25 25 25 25 25 25 25 25 25 25 24 24 24 24 25 24 22 23 25 25 25 24 23 22 21 21 20 20 19 18 17 16 16 15 16 15 14 15 14 13 15 16 15 15 16 15 16 16 16 15 15 14 14 13 12 11 11 9 9 12 11 9 9 8 8 8 9 10 10 10 9 9 9
27 28 29 29 28 28 27 27 28 28 28 27 26 26 25 24 25 25 25 24 24 24 25 25 25 25 24 24 25 27 25 22 23 25 25 25 24 23 22 21 21 20 20 19 19 18 17 16 15 16 16 14 14 14 11 12 14 15 15 15 15 15 15 15 14 13 13 14 13 13 13 12 8 9 11 9 8 9 9 9 10 11 12 12 11 11 10 10
28 28 28 29 29 29 28 28 28 28 28 27 26 25 24 24 24 24 24 24 23 24 24 25 25 25 26 26 26 27 27 24 23 24 25 24 24 23 22 21 21 20 20 19 18 18 18 17 17 17 17 16 14 14 13 11 12 15 15 14 17 17 15 14 13 13 13 13 14 13 12 12 11 11 10 8 8 9 9 9 9 10 11 12 12 11 10 10
29 28 29 30 30 30 29 28 28 28 28 28 27 26 25 24 23 24 24 24 24 24 25 26 26 26 26 27 27 28 29 26 23 23 24 25 24 23 21 21 21 20 20 19 18 19 19 19 18 18 18 18 16 15 14 12 11 14 16 15 16 16 15 13 12 13 13 13 14 13 12 11 11 11 11 11 10 10 10 10 10 10 10 12 12 11 10 10
29 29 29 30 31 32 30 29 29 28 28 28 28 26 25 24 23 24 24 24 25 25 25 26 26 26 25 26 29 29 29 28 25 23 23 25 24 24 23 21 21 20 20 20 19 20 20 20 20 20 19 19 18 17 16 15 15 16 17 16 14 13 13 13 12 13 13 14 13 14 15 13 10 10 11 12 13 13 13 12 12 12 12 12 12 11 10 10
30 30 30 31 32 33 32 31 29 29 29 29 28 27 26 25 25 25 25 26 26 25 25 27 28 27 25 27 30 29 28 28 27 24 22 23 24 24 23 22 21 21 20 20 20 20 21 20 20 20 21 21 20 21 19 18 18 17 16 16 15 13 13 13 12 12 12 13 13 14 16 15 14 14 13 13 15 16 15 14 14 13 13 13 13 12 11 11
30 30 31 31 33 34 33 32 30 30 30 30 30 29 27 27 26 26 26 27 27 28 29 29 32 30 25 27 29 28 28 28 27 27 24 23 23 22 22 22 20 20 20 21 21 21 21 21 22 23 24 23 21 20 19 18 15 14 14 13 13 14 13 12 12 11 11 12 14 16 17 16 16 17 16 15 17 19 17 16 15 14 14 14 14 14 13 12
31 31 31 32 33 34 34 33 32 31 31 32 31 30 30 30 30 30 29 29 29 31 31 30 32 31 23 22 28 29 30 29 27 27 25 23 22 21 21 21 20 19 19 19 20 21 21 22 24 24 21 19 18 17 18 18 15 13 13 13 14 14 13 12 11 12 13 14 14 15 18 19 18 17 16 16 19 21 19 17 16 14 14 14 15 15 14 11
31 31 31 32 33 34 35 34 33 33 33 33 32 31 32 32 32 32 31 30 30 30 31 29 29 31 23 18 25 29 30 30 28 26 26 25 24 22 21 21 20 20 20 19 19 20 21 23 22 18 15 15 16 18 18 17 15 13 14 15 15 14 13 12 12 12 13 14 15 16 19 21 18 17 16 17 20 21 19 18 17 15 15 15 15 14 13 12
31 30 31 32 33 34 35 35 35 35 35 33 33 32 31 30 28 27 27 28 29 29 29 27 27 30 25 17 22 29 30 31 29 27 26 25 25 24 23 22 20 19 20 20 20 20 22 22 18 15 16 17 18 19 18 17 14 13 13 13 13 13 12 12 12 12 13 14 15 17 21 22 19 17 17 17 20 20 19 20 18 17 16 15 14 13 12 12
31 31 30 32 34 35 35 36 36 36 36 34 33 31 29 28 25 23 23 25 26 27 28 27 25 28 27 20 20 27 29 30 30 29 28 26 25 24 23 22 20 19 20 21 21 22 21 18 17 18 19 19 19 19 19 19 17 15 14 13 12 12 11 10 10 11 12 13 15 17 21 22 19 18 17 16 19 20 18 19 18 17 16 15 14 14 12 11
33 31 30 32 33 35 35 36 36 36 36 35 33 31 28 26 25 23 22 23 24 26 27 27 24 26 27 22 20 25 27 28 28 28 28 26 25 24 23 21 21 20 20 20 19 19 16 14 18 21 20 19 19 20 20 20 20 18 17 15 13 12 10 9 9 10 12 14 17 19 21 22 20 17 16 15 16 18 17 16 14 13 14 14 14 14 13 12
34 32 31 32 33 35 35 35 36 35 35 35 33 31 27 25 25 23 21 22 23 25 27 28 26 25 27 25 22 23 25 26 26 27 28 27 25 25 23 21 21 22 20 19 18 17 16 14 17 21 20 20 20 20 20 20 20 19 18 17 15 13 12 11 11 12 14 14 16 16 12 14 17 13 10 11 11 12 13 12 10 10 11 12 13 13 13 13
36 34 32 32 33 34 35 35 35 35 35 34 32 30 27 25 24 23 22 20 21 26 28 29 28 27 28 28 24 22 23 25 26 26 27 28 27 26 24 24 23 22 20 19 17 18 19 17 15 18 20 20 20 20 20 20 20 18 17 17 16 15 15 14 14 13 11 9 11 10 5 10 19 17 13 13 11 10 11 9 8 10 11 12 11 11 12 13
37 36 34 33 34 35 36 36 35 35 35 33 32 29 27 26 24 24 22 12 14 26 30 31 31 30 31 30 27 25 24 26 28 27 27 28 28 27 26 26 25 22 21 20 20 20 21 20 16 17 19 20 21 20 20 20 19 17 16 15 14 15 14 14 14 13 12 11 12 13 11 13 23 23 18 15 11 8 8 9 9 10 10 11 10 10 12 14
37 36 36 35 35 35 36 35 35 35 32 31 31 28 27 26 24 25 19 4 7 22 29 32 33 31 32 31 30 29 26 25 29 30 29 28 28 28 27 26 24 23 22 23 24 21 19 21 19 18 19 20 21 20 19 20 18 16 15 14 13 12 12 12 12 11 12 13 13 14 12 10 18 26 22 18 16 11 11 12 11 10 9 10 11 11 13 14
38 38 38 37 36 35 35 34 34 33 31 30 29 27 27 25 24 23 13 4 10 20 25 32 34 32 33 33 33 34 29 25 28 31 30 29 29 29 28 25 23 22 22 23 23 20 17 19 20 19 19 20 20 20 20 19 18 16 15 14 12 11 10 10 10 10 10 10 11 14 13 7 14 26 23 20 18 13 11 9 7 7 7 9 10 12 13 14
38 38 38 38 37 36 35 34 33 32 31 29 28 28 27 25 27 21 6 9 18 19 23 30 35 35 35 36 36 36 33 27 26 29 30 30 29 28 27 24 22 21 22 21 21 21 19 17 20 21 20 19 18 19 20 19 17 16 15 14 11 9 8 8 9 9 7 7 8 12 15 11 9 16 17 14 11 6 6 6 8 10 9 8 8 11 13 14
37 38 37 38 38 37 36 34 32 32 30 30 29 29 28 27 29 18 6 16 22 19 25 30 34 38 37 39 39 38 37 31 26 29 31 32 31 30 28 26 25 22 20 22 22 22 20 17 19 22 21 20 19 18 18 18 17 15 13 13 10 6 5 6 7 6 4 4 3 6 12 15 12 8 4 2 3 2 4 7 12 12 10 9 9 10 12 14
36 38 38 38 37 36 35 33 33 32 30 31 29 29 32 27 24 21 15 18 18 18 28 31 34 41 39 40 40 39 40 34 29 29 31 34 34 34 34 31 32 27 22 25 25 22 22 20 19 20 21 22 20 19 19 17 17 15 13 12 9 3 1 3 3 3 5 6 4 5 7 12 20 19 12 7 8 10 9 10 13 12 10 10 12 12 13 14
35 37 38 38 37 35 35 33 33 33 31 33 30 32 34 22 19 32 29 19 13 16 27 30 33 40 39 39 39 39 39 36 33 31 29 32 33 34 34 32 34 31 26 29 28 23 19 19 22 23 22 24 24 23 23 21 18 17 16 14 11 4 3 3 3 2 5 6 7 9 7 10 18 17 14 13 17 21 20 16 14 12 11 11 12 12 13 13
34 35 36 37 37 36 36 34 34 34 33 34 33 34 33 21 24 38 34 22 14 13 24 29 32 38 38 40 40 38 38 36 34 32 29 31 33 35 37 34 35 34 29 27 29 28 21 16 24 28 24 24 26 24 22 19 18 18 18 18 16 12 6 3 4 3 2 1 6 10 6 6 5 2 4 2 2 10 17 18 17 13 12 13 14 14 14 14
34 35 34 35 36 36 36 35 35 35 35 37 37 36 36 31 31 36 36 30 19 14 22 27 30 36 38 37 38 38 38 36 35 34 31 33 35 37 39 39 38 37 33 28 27 30 27 20 22 28 27 23 23 24 22 18 17 18 19 21 20 18 11 5 3 4 1 2 3 9 11 11 9 7 4 6 8 6 5 14 17 13 12 13 14 14 13 13
37 36 35 34 34 34 36 36 36 37 37 39 40 40 43 40 31 31 35 35 25 16 20 25 28 35 38 36 36 37 38 37 36 35 33 35 36 36 37 38 39 39 38 34 28 27 27 21 17 21 27 25 21 22 24 22 20 19 22 25 22 18 15 9 4 3 2 3 6 10 16 19 17 14 12 8 7 5 4 10 14 12 10 11 13 14 14 14
38 38 37 35 34 34 33 34 36 38 39 41 43 44 46 41 30 26 29 34 30 19 17 25 28 32 37 38 37 39 39 36 35 36 36 35 34 37 39 37 38 40 39 37 32 27 25 21 17 19 23 26 24 23 24 25 24 22 23 25 22 16 16 13 4 1 1 2 7 11 17 20 17 13 10 10 16 18 14 13 14 13 12 12 14 14 15 15
36 38 39 37 36 35 32 32 34 37 39 43 47 46 43 38 30 25 26 32 33 24 18 23 27 31 36 38 39 40 39 37 36 37 38 36 32 35 41 40 38 39 39 37 33 28 24 18 17 21 22 23 26 25 25 27 28 27 24 22 19 14 12 13 7 1 1 2 5 7 12 18 21 18 11 6 9 12 15 17 18 19 18 16 16 15 15 14
29 34 37 39 40 38 36 35 36 37 39 44 49 45 40 37 31 26 26 29 32 31 25 22 24 29 34 36 38 39 39 38 39 39 37 36 34 32 37 41 39 37 38 38 34 30 26 18 15 21 24 23 26 30 32 33 32 31 25 20 19 15 12 15 14 7 3 3 3 3 5 11 15 15 12 12 11 12 16 18 19 21 21 19 16 15 15 15
24 28 32 37 39 40 41 41 40 40 43 47 50 45 39 36 33 28 26 27 30 33 32 27 25 26 30 34 35 37 39 39 39 40 37 36 36 32 32 36 39 37 35 36 36 32 28 23 18 20 24 27 30 33 37 37 34 33 29 24 24 22 16 14 16 15 9 4 2 1 5 6 3 1 1 8 11 12 15 17 18 20 19 17 15 15 16 17
24 25 28 31 34 36 38 40 42 45 48 49 49 46 39 35 34 31 27 26 29 31 32 31 28 26 27 30 32 34 38 39 39 40 38 38 38 34 30 31 35 36 35 36 39 35 31 28 24 23 27 32 34 33 34 34 33 33 33 32 32 32 26 14 10 17 18 10 5 3 6 12 10 6 4 8 10 11 13 16 18 19 18 16 16 16 17 16
25 26 26 27 29 30 31 33 37 44 51 52 50 47 42 36 34 34 30 27 28 29 31 30 29 27 25 26 29 32 34 37 39 40 40 40 40 35 29 27 29 32 35 36 37 38 33 28 25 24 27 30 30 30 31 31 33 34 34 35 35 35 36 25 12 14 18 17 16 8 7 17 17 11 11 11 10 12 16 20 21 20 18 17 17 18 17 15
27 27 26 25 24 24 26 28 31 38 47 51 49 46 43 38 34 34 33 30 29 29 30 30 29 29 26 25 28 30 32 34 36 38 40 40 39 36 29 26 25 28 33 35 36 38 35 29 26 23 21 24 27 29 30 29 32 36 36 38 37 35 37 33 23 18 16 20 21 9 6 19 15 6 9 8 6 11 18 20 18 16 16 17 19 20 19 18
29 29 27 26 23 23 26 29 31 34 39 43 44 43 41 39 35 34 34 33 31 30 30 30 29 29 30 27 26 28 31 31 32 35 38 37 37 36 33 29 25 26 30 34 37 39 34 29 27 17 7 10 17 20 26 31 34 37 39 39 38 36 34 32 30 23 15 22 25 13 12 24 17 6 8 8 9 14 16 15 13 13 17 20 21 21 21 22
31 31 30 28 26 26 28 29 31 32 33 35 38 40 39 39 37 34 33 33 33 31 30 30 30 30 30 29 27 28 30 31 30 31 34 36 35 34 34 32 28 26 26 28 32 36 35 34 33 23 12 10 13 17 28 37 36 35 37 37 37 36 34 33 32 24 20 28 31 25 26 30 22 14 12 12 14 15 14 13 15 16 18 20 21 22 24 27
34 33 32 30 29 29 30 29 29 31 31 30 33 36 37 38 39 36 33 32 33 33 31 30 30 30 30 30 30 29 30 31 30 29 30 33 33 32 33 32 30 27 25 25 27 30 33 36 38 37 33 31 32 31 31 33 33 35 37 37 36 36 35 34 31 30 33 33 31 36 40 36 34 29 19 16 19 19 18 18 19 21 24 27 29 30 32 35
36 34 33 32 30 30 33 32 31 31 32 30 30 33 35 36 37 37 36 33 32 33 32 31 30 30 30 31 31 30 31 32 32 31 28 28 31 31 30 31 31 29 26 26 26 27 30 34 38 40 41 41 41 37 32 29 31 35 37 38 37 35 35 36 35 38 40 31 28 40 43 39 44 41 30 29 31 29 29 29 30 34 37 38 39 39 39 40
35 35 35 34 30 30 33 35 33 31 31 29 28 30 31 31 31 34 38 39 36 34 32 32 34 33 30 30 30 31 32 32 33 34 30 27 29 31 30 30 31 31 29 27 28 29 29 31 34 37 38 39 39 37 35 33 30 30 32 35 37 37 37 40 41 42 42 36 37 44 42 41 47 45 39 41 40 36 36 38 39 41 41 40 40 40 41 41
32 33 35 36 34 32 32 34 34 33 31 29 28 28 29 30 30 31 34 37 39 39 36 35 36 35 32 29 29 30 33 34 35 36 35 32 29 30 31 29 28 31 32 30 29 30 29 29 30 32 34 36 36 36 36 35 32 30 30 30 33 35 37 40 41 42 43 44 46 46 44 46 48 44 42 41 40 40 40 39 40 41 42 43 42 41 40 40
28 30 32 35 37 36 33 31 33 35 34 32 32 32 31 31 32 32 31 33 36 40 41 40 38 35 33 31 30 30 31 33 33 33 34 34 31 31 31 29 29 31 32 32 30 30 30 29 28 30 31 32 34 36 35 34 33 32 31 30 31 33 35 38 41 42 44 46 46 45 48 50 48 46 44 43 43 44 41 41 43 43 43 43 42 40 39 38
27 28 30 32 35 37 35 32 31 34 37 36 35 35 34 33 32 32 32 32 33 35 38 40 38 35 33 32 32 32 31 29 28 25 25 27 27 28 28 28 28 29 31 33 31 30 32 30 28 29 28 29 34 34 32 32 30 29 32 35 37 39 40 42 43 43 44 44 43 44 49 51 50 48 45 44 46 45 42 43 43 41 41 41 42 43 43 43
28 28 29 29 31 34 36 35 32 34 37 38 37 36 35 34 32 30 30 31 31 32 33 34 33 31 33 35 35 34 30 28 27 23 22 22 23 25 26 26 26 25 27 30 31 31 33 32 30 28 24 25 29 28 28 24 18 22 36 44 44 44 44 44 43 43 43 43 43 45 48 48 47 47 46 46 46 43 41 40 38 38 41 44 46 48 48 48
Wind_Direction
200 201 199 196 197 201 203 202 201 202 201 201 199 195 192 193 193 191 192 192 189 186 182 177 177 179 179 180 178 176 177 178 177 174 172 171 173 174 174 177 179 180 181 181 181 182 185 188 190 191 190 189 189 187 185 185 187 189 194 194 187 182 190 195 186 170 156 124 120 110 52 201 192 198 209 214 217 217 212 213 212 212 217 211 198 192 191 186
199 200 198 195 194 197 201 201 200 200 201 200 198 193 191 193 192 189 188 189 186 181 179 177 177 178 179 179 177 175 177 179 179 177 176 176 176 175 178 181 182 183 183 184 185 187 189 191 192 194 194 193 193 191 189 190 193 197 204 203 195 188 196 200 185 177 160 129 136 39 3 342 251 218 222 223 222 226 224 225 226 221 221 218 212 204 200 199
196 197 195 194 192 193 198 200 199 199 200 199 195 191 192 193 190 187 185 185 182 179 178 178 177 179 179 177 176 177 179 181 182 181 180 179 178 179 181 183 185 186 187 187 188 190 192 193 194 195 196 195 194 195 194 195 198 204 209 210 205 202 207 198 184 184 175 166 199 291 326 329 291 242 238 236 231 229 228 232 233 227 223 224 224 216 210 209
194 195 193 192 190 190 193 197 198 198 199 198 193 190 191 190 187 184 183 183 180 179 179 178 178 178 177 176 177 180 183 185 185 184 183 182 181 183 184 186 188 189 190 190 190 191 193 194 195 195 196 195 195 196 197 199 202 207 213 216 217 216 216 200 188 194 195 212 240 272 306 316 285 257 253 255 251 236 228 231 232 227 221 222 225 223 219 217
192 193 191 190 190 188 189 193 195 197 199 197 191 188 189 187 183 181 181 181 181 181 180 178 179 178 177 177 180 184 186 187 187 186 186 185 185 186 187 189 190 191 193 193 193 193 194 196 196 196 195 195 196 197 200 203 206 211 215 219 222 220 216 207 199 202 212 227 249 276 297 298 275 264 263 267 264 236 224 221 222 223 223 223 224 225 223 223
191 191 189 188 188 187 186 188 191 195 197 195 189 187 187 183 179 177 179 181 182 183 181 179 179 179 178 180 184 188 188 187 188 188 188 188 188 189 190 191 192 193 195 194 194 194 194 196 196 197 196 195 196 199 202 205 208 212 216 219 221 219 212 209 206 208 219 235 254 275 284 281 273 265 266 274 260 239 232 223 221 222 225 227 228 227 225 225
191 189 188 187 186 185 183 182 188 194 196 193 188 185 183 180 177 177 179 181 184 185 182 181 180 179 180 183 187 190 190 190 189 189 190 190 191 192 193 193 193 193 194 194 194 193 193 193 194 195 197 197 198 200 202 205 209 211 214 216 219 218 213 212 215 218 228 244 256 266 273 275 274 265 264 276 258 246 236 227 226 224 223 229 234 231 226 224
192 189 187 186 184 183 180 177 183 190 194 192 186 181 180 179 178 179 181 183 185 185 183 182 182 181 181 185 189 191 191 191 190 189 190 191 191 192 193 193 193 192 192 192 193 193 192 189 190 193 197 200 199 201 203 203 207 210 212 214 217 219 217 218 222 229 238 249 259 268 273 273 270 267 266 256 253 252 238 227 226 226 225 224 226 225 222 222
193 190 188 186 184 182 179 174 178 185 189 190 184 179 180 180 181 182 183 185 186 186 183 183 184 184 184 186 190 191 192 191 188 188 189 189 189 190 191 192 192 191 191 191 190 191 190 187 188 190 196 200 199 201 204 204 207 209 210 212 215 218 220 223 230 238 246 255 265 270 271 271 269 271 269 242 244 246 239 231 224 223 226 223 222 220 217 219
194 192 189 187 185 182 180 176 177 182 185 188 184 180 182 182 183 184 185 187 188 186 184 184 186 187 187 187 190 191 192 192 187 185 186 186 186 187 189 190 190 190 190 190 188 188 188 187 187 188 193 198 198 200 204 205 208 209 211 213 216 219 224 229 235 243 252 259 264 264 266 267 264 265 253 239 239 238 234 230 221 211 208 212 215 216 216 217
195 193 191 189 187 185 182 180 181 182 185 188 188 185 184 185 184 185 187 189 188 187 186 187 189 189 189 190 190 190 191 192 189 185 183 183 184 185 187 188 188 188 189 189 187 186 187 187 188 187 191 196 196 199 203 204 207 209 212 217 219 222 226 232 239 245 252 257 258 259 261 261 262 258 238 241 244 242 234 222 215 209 203 207 209 214 217 215
197 195 193 191 190 187 184 184 184 186 187 189 191 190 188 186 186 186 188 190 189 188 188 189 192 191 190 191 189 188 190 191 189 186 183 181 181 184 186 187 187 187 188 187 187 187 187 188 190 188 191 196 195 196 202 203 203 206 212 219 223 224 228 233 238 243 248 253 255 258 260 257 258 250 236 242 244 244 243 233 225 222 220 220 217 217 217 218
199 197 195 193 192 190 187 186 187 188 189 190 194 194 191 188 187 188 190 191 190 189 189 191 193 193 192 191 189 188 188 188 188 187 185 181 180 182 184 186 186 186 187 186 187 187 188 190 191 192 194 196 196 198 202 203 202 205 212 219 222 225 229 232 235 240 245 249 252 253 253 253 251 241 239 243 243 240 243 245 240 231 226 226 227 225 220 224
201 199 197 196 194 192 190 188 188 190 190 191 196 196 193 190 189 189 191 192 191 190 191 192 193 193 193 192 191 189 185 184 186 186 186 184 180 180 182 185 186 187 187 187 189 188 189 193 192 195 200 201 202 204 206 205 205 208 213 220 224 224 226 229 232 237 241 245 247 247 246 246 244 242 246 252 252 244 239 241 243 239 235 231 231 230 226 230
203 203 200 198 196 194 192 191 190 191 191 192 195 197 194 192 190 190 192 192 191 192 193 194 194 194 194 194 194 191 187 183 182 183 186 184 181 180 182 184 186 188 188 188 191 190 190 194 195 198 203 207 208 209 210 210 208 210 213 219 223 223 226 229 230 234 237 239 241 242 244 244 240 241 248 252 249 247 243 244 249 246 245 243 240 237 234 235
205 205 203 200 198 196 194 192 192 192 191 190 193 196 193 193 192 192 193 193 192 193 194 194 195 195 195 195 196 194 190 185 180 180 184 184 182 181 182 185 187 187 188 188 191 193 193 194 196 199 204 208 211 212 213 215 214 212 214 220 224 223 226 228 230 232 233 236 237 238 239 239 238 236 239 245 246 248 248 249 254 251 249 249 246 244 240 239
206 206 204 201 198 197 196 193 193 193 191 189 192 194 192 192 194 194 194 193 193 194 194 194 195 196 197 199 198 195 193 189 184 180 181 183 183 182 183 186 187 186 187 188 190 194 195 195 197 201 204 207 211 212 210 214 219 216 213 218 224 223 223 225 229 231 233 236 238 240 240 236 235 231 225 232 239 241 245 248 251 251 250 251 251 252 249 246
206 207 204 201 198 197 197 194 193 194 192 189 189 192 190 190 193 195 195 194 194 193 193 195 194 194 199 202 199 196 194 192 190 185 182 183 183 184 184 186 189 188 187 188 192 194 194 195 198 202 205 206 209 211 211 216 225 225 222 223 226 225 223 222 224 229 233 237 239 242 243 236 233 235 229 230 238 241 245 251 255 259 260 260 261 260 258 252
205 206 204 201 198 197 196 194 193 194 193 190 189 190 190 190 192 195 195 195 194 192 193 197 196 194 199 203 199 196 194 193 194 192 189 185 183 184 184 186 189 190 190 191 192 195 195 195 198 203 207 206 209 213 217 224 231 232 231 231 230 228 226 223 221 226 231 236 241 244 247 241 232 236 239 241 248 249 248 251 256 263 265 265 265 262 258 249
203 204 204 201 199 196 195 193 193 194 195 192 190 190 191 191 192 193 194 195 196 197 198 199 199 197 200 202 199 196 194 194 194 194 194 191 187 186 184 185 187 190 194 195 196 197 198 200 203 206 208 210 212 214 217 225 231 229 223 221 223 225 226 225 222 228 235 241 247 251 255 250 238 236 240 244 251 254 255 257 258 260 261 261 261 260 257 247
202 202 202 201 199 196 194 193 193 195 196 195 192 193 196 197 197 197 196 194 196 200 202 201 199 199 201 201 199 198 196 196 193 192 195 195 193 191 188 188 188 189 191 195 200 200 201 206 208 209 212 212 212 212 212 218 226 225 218 218 220 221 225 226 227 232 240 248 253 258 260 255 250 245 239 239 247 254 260 264 264 265 264 263 262 260 257 250
200 201 201 199 198 196 194 193 193 195 197 196 195 195 197 199 203 206 203 201 199 200 202 202 200 199 201 199 197 198 199 198 195 192 193 194 195 195 194 193 191 192 192 194 198 199 204 209 206 205 209 208 207 210 210 210 213 212 209 214 217 219 222 224 229 236 243 255 260 264 265 261 259 256 246 242 247 251 255 259 264 268 269 269 268 262 254 248
198 198 198 198 197 195 194 194 194 196 197 197 197 196 196 196 200 206 206 207 207 204 202 203 202 200 201 199 197 198 200 201 199 196 194 194 195 196 199 198 194 195 198 199 199 200 205 206 202 204 208 207 206 207 207 207 209 209 209 212 213 217 219 220 230 240 249 261 267 273 275 266 260 259 252 247 250 252 255 259 263 265 265 264 262 258 250 244
196 196 197 197 196 195 194 194 195 196 197 197 197 197 195 195 198 201 203 206 209 209 205 204 203 201 201 201 199 199 200 202 203 202 199 197 195 197 199 200 200 200 201 204 205 208 212 206 202 205 206 205 206 206 206 207 210 213 215 215 216 220 225 232 241 251 262 271 275 283 287 277 268 267 260 249 248 253 257 260 263 264 261 255 251 248 243 238
194 195 195 196 196 195 194 194 195 196 197 197 197 196 195 194 197 200 202 204 209 209 207 206 203 201 201 199 201 200 199 201 202 204 204 201 199 199 197 197 202 203 201 203 204 209 215 213 208 207 207 206 205 208 209 209 213 218 221 222 223 227 235 244 250 261 275 280 281 289 299 283 271 269 265 253 242 247 256 261 263 263 255 245 239 236 233 235
193 194 194 195 196 196 195 194 195 196 197 197 197 196 195 195 196 199 199 203 213 211 206 206 204 202 201 198 197 196 197 201 200 201 205 203 202 202 200 200 202 203 202 201 202 207 210 212 211 208 209 209 206 208 210 211 215 221 227 229 231 237 243 251 258 266 275 275 279 285 289 281 276 269 265 267 262 255 257 262 261 257 255 249 240 232 232 240
193 193 193 194 195 195 196 195 195 197 197 196 196 195 195 194 194 198 195 200 227 216 208 206 204 203 203 200 198 195 196 201 198 198 203 203 203 203 204 206 204 202 200 199 203 208 209 208 208 205 207 210 208 207 208 210 214 220 228 231 235 243 247 255 261 264 265 267 273 274 270 280 279 273 271 273 267 252 255 268 272 264 259 258 252 241 240 245
193 193 192 194 195 195 196 195 196 197 197 196 194 193 193 192 192 195 190 176 224 211 209 208 205 204 202 199 201 200 202 203 197 197 199 201 203 204 206 209 208 205 203 204 206 209 210 209 210 209 207 210 210 208 208 209 211 218 225 230 236 245 250 255 259 258 264 273 272 269 267 268 273 274 278 278 272 268 275 281 281 275 259 248 245 241 241 243
193 194 193 193 194 195 195 195 195 194 194 194 192 190 189 189 188 186 184 205 207 203 206 206 204 203 201 199 201 203 204 204 201 201 198 198 201 204 205 206 207 209 209 211 213 213 214 211 211 212 211 213 211 209 211 212 215 220 226 235 241 246 249 248 250 254 266 272 266 268 264 253 273 276 276 281 283 281 279 273 256 243 231 221 222 224 225 227
192 195 194 193 194 194 194 194 192 190 190 190 188 187 185 185 183 175 173 215 204 202 204 202 202 202 200 199 199 202 204 203 203 202 198 197 200 202 204 202 202 208 212 211 212 215 217 213 211 211 211 212 210 209 212 214 219 225 228 231 232 234 237 238 246 256 276 275 259 260 251 236 271 289 284 281 280 268 252 236 208 200 196 194 202 208 209 213
191 194 194 194 194 194 193 192 190 187 187 187 186 184 181 181 182 176 192 205 199 203 203 199 200 201 202 202 201 201 202 201 201 201 199 197 197 199 200 198 196 199 208 210 208 212 214 212 210 210 210 208 206 205 207 212 214 214 217 215 209 209 220 237 247 240 247 265 242 243 241 225 226 267 302 164 165 210 238 208 190 183 184 193 202 206 209 213
190 192 194 194 194 194 193 192 189 186 186 186 185 184 181 176 183 196 205 196 194 207 204 199 199 200 202 204 204 202 200 199 199 201 203 200 198 199 200 200 197 192 197 205 205 207 209 212 210 209 211 208 203 197 193 199 204 205 205 195 186 160 148 245 250 217 233 244 229 227 233 231 241 257 265 232 235 258 241 201 192 192 194 203 208 214 219 225
191 193 193 193 193 192 193 192 189 186 186 186 185 185 181 174 196 206 201 191 191 203 203 203 202 200 199 200 204 204 201 200 199 199 203 204 202 202 202 204 204 202 201 200 199 199 201 212 213 209 210 208 206 201 196 197 201 206 210 200 190 151 95 253 263 287 264 246 221 223 239 258 262 271 273 260 253 246 231 209 200 199 200 210 218 226 234 244
193 194 193 192 191 190 191 191 189 187 185 185 185 182 181 189 210 206 199 194 192 191 197 201 200 197 198 200 203 204 201 200 202 200 199 202 204 203 203 204 206 211 210 199 197 199 196 209 215 210 209 210 210 211 212 217 218 219 221 219 217 208 187 212 220 214 253 241 202 208 227 254 230 136 75 47 249 233 223 212 207 212 220 226 230 235 243 250
194 195 194 192 191 189 189 188 188 187 184 185 185 183 189 202 210 206 201 197 194 187 190 195 197 194 195 199 202 203 202 200 201 202 201 203 206 206 207 207 205 208 209 201 198 201 203 213 217 212 212 214 213 215 218 221 223 223 221 221 224 224 222 223 225 222 217 25 228 216 229 235 210 182 137 88 72 78 175 205 210 221 229 221 220 227 236 243
194 196 195 192 191 189 189 188 186 186 185 185 185 189 200 208 209 207 204 200 199 196 183 184 193 194 193 197 200 201 204 204 200 200 202 206 210 212 211 212 210 210 211 208 201 199 204 213 216 210 211 213 212 214 215 214 216 217 215 217 220 222 225 229 249 264 266 296 259 231 240 247 246 248 241 225 237 245 207 200 199 201 210 213 219 228 238 246
193 194 195 193 190 188 188 188 187 187 187 188 190 197 207 211 210 209 206 203 203 199 185 184 190 195 195 196 199 200 202 204 201 201 203 205 211 215 213 214 216 216 216 215 210 208 208 209 211 210 209 210 210 211 215 218 221 219 217 220 220 220 226 224 223 346 74 272 261 240 245 253 252 254 255 244 237 233 225 218 212 212 221 228 231 236 243 247
194 193 193 192 189 188 188 188 188 189 188 191 197 204 209 209 208 208 209 208 206 202 198 195 194 198 199 199 200 200 200 202 201 201 203 205 211 218 215 213 216 216 218 218 217 217 215 207 209 211 209 211 213 212 213 218 223 225 226 223 215 210 213 206 199 195 155 233 281 255 248 255 250 245 247 229 203 207 220 231 234 234 234 234 236 239 241 239
200 198 195 191 187 186 188 188 190 191 191 195 201 206 210 209 206 205 208 209 209 208 208 206 203 202 204 206 204 200 201 203 203 203 205 207 212 218 217 215 216 215 216 218 219 219 217 211 209 210 208 208 210 211 213 214 214 218 222 220 214 214 211 204 207 209 181 194 270 287 270 264 260 257 249 229 216 224 236 238 234 232 232 231 231 233 235 236
207 206 202 196 189 185 184 187 190 191 193 200 204 206 209 209 204 202 204 205 207 209 210 211 213 209 207 209 210 206 204 206 208 208 209 210 213 218 218 215 216 216 213 215 219 220 218 216 215 209 203 205 210 213 217 218 214 213 215 213 211 211 206 208 220 221 214 194 180 261 284 261 240 7 178 189 196 214 230 233 227 223 225 225 224 227 230 233
209 212 210 205 198 191 184 185 189 191 196 203 205 206 209 210 206 202 201 202 204 207 209 211 214 216 213 211 212 211 209 209 211 212 214 216 217 219 220 216 216 215 211 211 215 217 217 215 215 208 202 207 213 217 221 223 223 225 226 225 222 217 208 201 216 221 219 222 210 199 274 267 258 264 241 191 191 212 233 238 230 220 219 221 223 225 226 231
210 214 215 212 208 201 194 192 191 192 198 204 206 207 209 210 208 205 203 203 205 207 208 209 211 215 217 216 214 214 212 212 214 215 218 221 221 222 222 219 217 215 213 214 215 217 217 215 215 215 216 217 218 221 223 222 225 228 231 233 230 223 216 209 207 215 212 224 236 232 267 272 269 262 251 239 231 232 232 228 223 219 219 222 227 230 234 243
212 215 217 216 212 207 204 203 199 196 199 204 207 208 209 210 210 210 208 208 209 209 209 209 210 212 214 215 215 215 214 215 217 219 221 224 225 225 224 222 220 216 215 217 216 215 216 217 214 212 220 221 218 222 225 223 224 224 226 230 228 224 222 219 223 229 217 220 229 218 251 261 262 254 242 240 216 206 209 209 208 214 224 227 231 235 240 248
212 215 216 214 210 210 212 211 206 203 203 205 208 209 210 209 209 210 209 208 209 210 209 209 211 212 214 214 213 215 215 214 218 222 223 225 225 225 225 224 221 217 216 218 217 215 213 213 209 196 186 213 215 223 226 222 222 222 224 226 226 227 225 222 226 231 230 233 228 211 237 252 253 232 209 197 180 183 189 197 208 222 232 233 235 241 249 256
211 214 215 214 209 211 217 217 214 213 211 208 209 211 212 209 207 206 205 206 208 209 209 210 211 212 215 215 213 213 214 215 218 220 223 225 226 225 225 224 223 222 222 221 221 219 216 215 212 200 182 193 204 212 218 217 215 218 222 224 227 227 224 223 225 223 230 240 231 221 236 247 249 240 219 201 197 194 191 205 221 229 232 234 238 245 254 258
209 211 213 213 212 214 219 221 220 222 222 218 213 212 213 213 212 209 205 205 207 208 207 208 210 211 212 214 213 212 213 216 218 220 221 223 224 225 225 224 223 223 221 219 219 219 219 221 222 219 218 222 223 222 223 221 216 219 224 225 226 227 227 227 223 220 230 238 235 234 241 247 250 248 234 216 218 223 230 235 235 238 247 255 260 263 264 265
207 210 212 211 211 216 220 221 222 224 226 227 223 217 214 215 215 214 211 209 208 208 208 207 207 208 210 213 213 212 213 215 218 221 222 222 222 223 224 223 221 219 217 215 214 214 217 221 226 228 231 235 237 235 237 236 230 229 230 228 227 227 227 226 224 228 233 234 239 245 244 247 253 251 247 248 251 253 255 257 258 260 265 271 274 275 277 278
205 208 211 211 211 216 220 221 222 223 223 224 226 225 222 219 217 216 214 214 212 210 209 210 210 209 209 211 212 214 215 215 218 220 221 222 221 221 222 222 219 217 215 213 212 213 217 221 225 229 233 237 240 240 240 241 240 239 237 235 234 231 229 229 231 236 237 233 243 252 250 252 258 258 258 262 264 263 263 265 267 270 273 275 277 280 283 286
205 207 209 211 213 217 220 221 221 221 222 220 221 225 227 224 222 218 214 215 216 215 214 215 213 210 209 208 210 213 214 215 218 220 220 221 220 221 221 220 219 218 217 215 213 214 217 223 227 229 232 236 238 239 241 241 241 240 238 237 237 236 236 237 239 242 242 241 248 254 254 257 262 263 264 268 269 266 265 267 269 273 277 279 282 284 286 289
205 206 208 210 214 217 219 221 220 220 221 220 220 223 227 227 227 223 218 216 216 216 218 219 217 214 212 211 211 212 213 215 219 221 221 222 222 223 222 220 220 220 218 218 217 216 219 223 227 229 232 234 236 238 240 239 239 239 238 236 236 235 236 238 240 242 241 243 248 251 254 259 262 262 264 267 267 265 266 270 274 277 280 283 286 288 289 290
206 207 208 210 213 216 218 219 219 219 219 221 223 224 226 228 229 228 227 225 223 221 221 222 224 223 222 223 221 216 213 214 218 221 221 221 223 223 222 222 223 223 220 219 218 218 220 223 226 228 229 231 233 235 234 232 231 229 230 233 234 233 234 237 239 240 241 243 248 248 251 257 262 262 264 265 265 267 270 273 276 279 282 285 288 290 291 292
210 209 209 211 213 215 217 218 218 219 220 223 225 226 226 229 230 229 231 232 232 230 227 227 231 233 233 233 228 221 219 224 228 228 222 219 219 217 214 213 215 217 214 213 215 217 218 221 223 224 223 227 230 229 225 222 218 223 231 235 236 237 239 240 239 241 244 245 245 247 252 259 264 264 265 266 267 270 274 274 276 279 283 286 287 288 291 293
Height
3066 3068 3070 3072 3074 3077 3079 3081 3083 3086 3088 3090 3092 3094 3097 3099 3102 3105 3107 3109 3111 3112 3114 3116 3118 3120 3122 3124 3125 3127 3129 3132 3134 3136 3138 3140 3142 3144 3147 3148 3150 3152 3154 3155 3157 3159 3160 3162 3164 3165 3167 3168 3169 3171 3172 3173 3173 3174 3175 3176 3177 3177 3178 3178 3179 3179 3179 3179 3179 3179 3179 3180 3180 3180 3181 3182 3182 3183 3184 3184 3184 3185 3185 3185 3186 3186 3186 3187
3065 3067 3069 3070 3073 3075 3078 3080 3082 3084 3087 3089 3091 3093 3096 3099 3101 3104 3106 3108 3110 3111 3113 3115 3117 3119 3121 3123 3125 3127 3129 3132 3134 3136 3138 3140 3142 3144 3146 3148 3150 3152 3153 3155 3157 3158 3160 3161 3163 3165 3166 3168 3169 3170 3171 3172 3173 3174 3175 3176 3177 3177 3178 3178 3178 3179 3179 3179 3179 3179 3179 3179 3180 3180 3181 3181 3182 3183 3183 3184 3184 3185 3185 3185 3186 3186 3186 3187
3064 3066 3067 3069 3071 3074 3076 3078 3081 3083 3086 3088 3090 3092 3095 3098 3100 3103 3105 3108 3109 3111 3113 3115 3117 3119 3121 3123 3124 3127 3129 3131 3133 3135 3137 3139 3141 3144 3146 3148 3150 3152 3153 3155 3156 3157 3159 3161 3163 3164 3166 3167 3168 3169 3170 3171 3172 3173 3174 3175 3176 3177 3177 3178 3178 3178 3178 3179 3179 3179 3179 3179 3179 3180 3180 3181 3181 3182 3183 3183 3184 3184 3185 3185 3185 3186 3186 3187
3063 3065 3066 3068 3070 3072 3075 3077 3079 3082 3085 3087 3089 3091 3094 3097 3099 3101 3104 3107 3109 3111 3112 3114 3116 3118 3120 3122 3124 3127 3129 3131 3133 3135 3137 3139 3141 3143 3145 3147 3149 3151 3153 3154 3155 3157 3158 3160 3162 3163 3164 3166 3167 3168 3170 3171 3171 3172 3174 3175 3176 3177 3177 3177 3178 3178 3178 3178 3179 3179 3179 3179 3179 3179 3180 3180 3181 3182 3182 3183 3183 3184 3184 3184 3185 3185 3186 3186
3062 3063 3065 3067 3069 3071 3074 3076 3078 3081 3084 3086 3088 3090 3093 3096 3098 3101 3104 3106 3109 3110 3112 3114 3115 3118 3120 3122 3124 3126 3128 3131 3133 3135 3137 3139 3141 3143 3145 3147 3149 3151 3152 3153 3155 3156 3158 3159 3161 3162 3163 3164 3166 3168 3169 3170 3170 3171 3173 3174 3175 3176 3177 3177 3177 3177 3178 3178 3178 3179 3179 3179 3179 3179 3179 3180 3181 3181 3181 3182 3182 3183 3183 3184 3184 3185 3185 3186
3060 3062 3064 3066 3068 3070 3072 3075 3077 3080 3083 3085 3087 3090 3093 3095 3098 3100 3103 3106 3108 3110 3112 3113 3115 3117 3119 3122 3124 3126 3128 3130 3132 3134 3136 3138 3140 3142 3144 3146 3148 3150 3151 3153 3154 3156 3157 3158 3160 3161 3162 3164 3165 3167 3168 3169 3169 3171 3172 3173 3174 3175 3176 3177 3177 3177 3177 3178 3178 3178 3178 3178 3179 3179 3179 3179 3180 3181 3181 3181 3181 3182 3182 3183 3183 3184 3185 3186
3059 3061 3064 3066 3068 3070 3072 3074 3077 3079 3082 3085 3087 3089 3092 3095 3097 3100 3102 3105 3108 3110 3111 3113 3115 3117 3119 3121 3124 3126 3128 3130 3132 3134 3136 3138 3140 3142 3144 3145 3147 3149 3150 3152 3154 3155 3156 3157 3159 3160 3162 3163 3164 3165 3166 3168 3169 3170 3171 3172 3173 3174 3175 3176 3176 3176 3177 3177 3177 3178 3178 3178 3178 3178 3179 3179 3180 3180 3180 3181 3181 3181 3182 3182 3183 3183 3184 3185
3058 3061 3063 3065 3067 3069 3071 3073 3076 3079 3082 3084 3087 3089 3091 3094 3096 3099 3102 3105 3107 3109 3110 3112 3114 3117 3119 3121 3123 3125 3127 3129 3131 3133 3135 3137 3139 3141 3143 3145 3147 3148 3150 3151 3153 3154 3156 3157 3158 3159 3161 3162 3164 3165 3166 3167 3168 3169 3171 3172 3173 3173 3174 3175 3175 3176 3176 3176 3177 3177 3177 3177 3177 3178 3178 3179 3179 3179 3180 3180 3180 3180 3181 3182 3182 3183 3183 3184
3057 3059 3062 3064 3066 3069 3070 3072 3075 3079 3082 3085 3087 3088 3091 3093 3096 3098 3101 3104 3106 3108 3110 3112 3114 3117 3119 3121 3123 3125 3126 3128 3130 3132 3135 3137 3138 3140 3142 3144 3146 3148 3149 3151 3152 3154 3155 3156 3158 3159 3160 3162 3163 3164 3165 3166 3168 3169 3170 3171 3171 3172 3173 3174 3175 3175 3175 3175 3176 3176 3176 3176 3177 3177 3177 3178 3178 3178 3179 3180 3180 3180 3180 3181 3182 3182 3183 3183
3056 3058 3061 3063 3066 3068 3070 3072 3075 3079 3082 3085 3087 3088 3090 3093 3095 3098 3100 3103 3105 3107 3109 3111 3114 3116 3118 3120 3122 3124 3126 3128 3129 3131 3134 3136 3138 3140 3141 3143 3145 3147 3149 3150 3152 3153 3154 3156 3157 3158 3160 3162 3163 3163 3164 3166 3167 3169 3170 3170 3171 3171 3172 3173 3174 3174 3174 3175 3175 3175 3175 3175 3176 3176 3177 3176 3176 3177 3178 3179 3179 3180 3180 3181 3181 3182 3182 3182
3054 3057 3060 3062 3065 3068 3070 3073 3075 3078 3082 3085 3087 3088 3090 3093 3095 3097 3100 3102 3104 3107 3109 3111 3114 3116 3118 3120 3122 3124 3125 3127 3129 3131 3133 3135 3137 3139 3141 3143 3145 3146 3148 3150 3151 3152 3154 3155 3156 3158 3160 3161 3162 3163 3164 3165 3166 3168 3169 3169 3170 3171 3172 3172 3173 3173 3174 3174 3174 3174 3174 3174 3175 3176 3176 3175 3176 3177 3178 3178 3179 3179 3180 3180 3180 3181 3181 3182
3053 3056 3059 3061 3064 3067 3070 3072 3075 3078 3081 3084 3087 3088 3090 3092 3095 3097 3099 3101 3104 3106 3108 3111 3113 3116 3118 3119 3122 3123 3125 3126 3128 3130 3131 3133 3135 3137 3140 3142 3144 3146 3147 3149 3150 3151 3153 3154 3156 3158 3159 3160 3161 3162 3163 3164 3165 3167 3168 3169 3169 3170 3171 3171 3172 3173 3173 3173 3173 3173 3173 3173 3174 3175 3175 3174 3175 3176 3177 3178 3178 3179 3179 3179 3180 3180 3181 3181
3052 3055 3058 3060 3063 3066 3069 3071 3074 3077 3080 3083 3086 3088 3090 3092 3094 3096 3098 3100 3103 3105 3108 3110 3113 3115 3117 3119 3121 3122 3124 3126 3127 3129 3131 3132 3134 3136 3139 3141 3143 3145 3146 3148 3149 3150 3152 3153 3155 3157 3158 3160 3161 3161 3162 3163 3165 3166 3167 3168 3168 3169 3169 3170 3171 3171 3172 3171 3172 3172 3172 3172 3173 3174 3173 3173 3174 3175 3176 3177 3177 3178 3178 3178 3179 3179 3180 3180
3051 3053 3056 3059 3062 3065 3068 3070 3073 3076 3079 3082 3085 3088 3090 3091 3093 3095 3098 3100 3102 3105 3107 3110 3112 3114 3116 3118 3120 3121 3123 3125 3126 3128 3130 3132 3134 3136 3138 3140 3142 3144 3145 3146 3148 3149 3151 3153 3154 3156 3157 3159 3160 3160 3161 3162 3164 3165 3166 3167 3167 3167 3168 3169 3170 3170 3170 3170 3170 3171 3171 3171 3172 3172 3172 3173 3173 3174 3175 3176 3176 3177 3177 3177 3178 3178 3178 3179
3050 3052 3055 3058 3061 3064 3067 3069 3072 3075 3078 3081 3084 3087 3089 3090 3092 3095 3097 3099 3101 3104 3106 3109 3111 3113 3115 3117 3118 3120 3122 3124 3126 3127 3129 3131 3133 3135 3137 3139 3141 3142 3144 3146 3147 3149 3150 3152 3153 3155 3156 3157 3158 3159 3160 3161 3163 3164 3165 3166 3166 3166 3167 3168 3169 3169 3169 3169 3169 3170 3170 3170 3171 3172 3172 3172 3172 3173 3174 3175 3175 3176 3176 3176 3176 3177 3177 3178
3048 3051 3054 3057 3060 3063 3065 3068 3071 3074 3077 3079 3082 3085 3087 3089 3091 3094 3096 3098 3101 3103 3105 3108 3110 3112 3114 3115 3117 3119 3121 3123 3125 3127 3128 3130 3132 3134 3136 3138 3140 3141 3143 3145 3146 3148 3150 3151 3152 3153 3154 3156 3157 3158 3160 3161 3162 3163 3164 3164 3165 3165 3166 3167 3167 3168 3168 3168 3168 3168 3169 3169 3170 3170 3171 3171 3171 3172 3172 3173 3174 3174 3175 3175 3175 3176 3176 3176
3047 3050 3053 3055 3058 3061 3064 3067 3070 3073 3075 3078 3080 3083 3085 3088 3090 3093 3095 3097 3099 3101 3104 3106 3108 3111 3113 3113 3115 3117 3120 3122 3124 3126 3128 3129 3131 3133 3135 3137 3138 3140 3142 3143 3145 3147 3148 3150 3151 3152 3153 3154 3156 3157 3158 3159 3160 3161 3162 3163 3164 3165 3165 3166 3166 3166 3167 3167 3167 3167 3167 3168 3169 3169 3170 3170 3170 3170 3171 3172 3172 3173 3173 3174 3174 3174 3175 3175
3046 3048 3051 3054 3057 3060 3063 3065 3069 3072 3074 3076 3079 3081 3084 3086 3089 3091 3093 3096 3098 3100 3103 3105 3106 3109 3110 3110 3113 3116 3119 3121 3123 3125 3127 3128 3130 3132 3134 3136 3137 3139 3140 3142 3144 3146 3147 3148 3150 3151 3151 3152 3154 3155 3156 3157 3158 3160 3161 3162 3163 3163 3164 3164 3165 3165 3165 3165 3166 3166 3166 3167 3168 3168 3168 3169 3169 3169 3169 3170 3171 3171 3172 3172 3173 3173 3174 3174
3044 3047 3049 3052 3055 3058 3061 3064 3067 3070 3073 3075 3077 3079 3082 3085 3088 3090 3092 3094 3096 3098 3100 3101 3103 3105 3106 3108 3112 3115 3117 3120 3122 3124 3126 3128 3129 3131 3132 3134 3136 3137 3139 3140 3142 3144 3146 3147 3148 3148 3149 3150 3152 3154 3155 3157 3158 3160 3161 3161 3162 3162 3163 3163 3164 3164 3164 3164 3164 3164 3164 3165 3166 3166 3167 3168 3167 3167 3168 3169 3169 3170 3171 3171 3171 3171 3172 3172
3042 3045 3048 3050 3053 3056 3059 3062 3065 3068 3071 3073 3075 3078 3080 3082 3084 3086 3089 3092 3094 3095 3097 3098 3101 3104 3106 3108 3111 3113 3116 3118 3120 3123 3125 3127 3128 3130 3131 3133 3134 3136 3138 3139 3141 3143 3144 3145 3145 3146 3148 3150 3152 3154 3155 3156 3158 3159 3160 3160 3160 3161 3161 3162 3163 3163 3163 3163 3163 3163 3163 3163 3164 3165 3166 3167 3165 3165 3166 3167 3168 3169 3169 3169 3169 3170 3170 3171
3041 3043 3046 3049 3052 3055 3058 3060 3063 3066 3069 3071 3074 3076 3078 3080 3082 3084 3087 3089 3092 3094 3096 3098 3101 3104 3106 3108 3110 3112 3114 3116 3119 3121 3123 3125 3127 3129 3130 3131 3132 3134 3136 3138 3140 3142 3143 3143 3144 3147 3149 3151 3152 3153 3154 3155 3157 3158 3159 3159 3159 3160 3160 3161 3161 3162 3162 3162 3162 3162 3161 3161 3163 3164 3164 3165 3163 3163 3165 3165 3165 3166 3167 3167 3168 3168 3169 3169
3039 3042 3045 3048 3050 3053 3056 3059 3061 3064 3067 3070 3072 3075 3077 3080 3083 3086 3088 3090 3091 3093 3096 3098 3100 3103 3105 3107 3109 3111 3113 3115 3117 3120 3122 3124 3125 3127 3128 3130 3131 3133 3135 3137 3138 3140 3141 3142 3145 3147 3148 3149 3150 3151 3153 3155 3156 3157 3158 3158 3159 3159 3159 3160 3160 3161 3161 3161 3161 3161 3160 3159 3160 3161 3162 3163 3162 3162 3163 3163 3164 3165 3165 3166 3166 3166 3167 3167
3037 3040 3043 3046 3049 3051 3054 3057 3060 3063 3066 3069 3071 3074 3077 3080 3083 3086 3088 3090 3091 3093 3095 3097 3099 3102 3104 3106 3107 3110 3112 3114 3116 3118 3120 3122 3124 3126 3127 3129 3131 3132 3134 3135 3137 3138 3139 3142 3144 3145 3146 3147 3148 3150 3151 3153 3154 3156 3156 3157 3158 3158 3159 3159 3159 3160 3160 3160 3160 3160 3158 3156 3158 3159 3159 3160 3160 3160 3161 3161 3162 3163 3163 3164 3164 3164 3165 3166
3036 3039 3042 3044 3047 3050 3052 3055 3058 3061 3064 3067 3070 3073 3076 3079 3082 3084 3087 3089 3090 3092 3094 3096 3098 3100 3103 3105 3107 3109 3111 3113 3115 3117 3119 3121 3123 3124 3126 3128 3130 3131 3133 3135 3136 3138 3139 3141 3142 3143 3144 3146 3147 3148 3150 3151 3153 3154 3155 3156 3157 3157 3158 3158 3158 3159 3159 3159 3159 3159 3157 3154 3154 3156 3157 3158 3159 3159 3159 3160 3161 3161 3161 3162 3162 3162 3163 3164
3034 3037 3040 3043 3046 3048 3051 3053 3056 3060 3062 3065 3068 3072 3075 3078 3080 3083 3085 3087 3088 3089 3092 3094 3096 3098 3101 3103 3105 3107 3110 3112 3114 3116 3118 3120 3122 3123 3125 3127 3128 3129 3132 3134 3136 3138 3139 3140 3140 3142 3143 3144 3146 3147 3148 3150 3152 3153 3154 3155 3156 3157 3157 3157 3158 3158 3158 3158 3158 3158 3157 3153 3151 3154 3155 3155 3157 3157 3158 3158 3159 3159 3159 3159 3160 3161 3161 3162
3032 3035 3038 3041 3044 3047 3049 3051 3055 3058 3060 3064 3067 3071 3074 3076 3079 3082 3084 3086 3086 3086 3088 3091 3094 3096 3098 3101 3103 3106 3109 3110 3112 3114 3116 3118 3120 3122 3123 3125 3126 3128 3130 3133 3135 3136 3137 3138 3139 3140 3142 3143 3144 3146 3147 3149 3150 3152 3152 3153 3155 3155 3156 3156 3157 3157 3157 3157 3157 3158 3158 3154 3149 3151 3153 3154 3155 3156 3156 3157 3157 3157 3157 3157 3158 3159 3160 3160
3030 3033 3036 3039 3042 3045 3047 3049 3053 3055 3058 3062 3066 3069 3073 3075 3078 3080 3083 3086 3084 3082 3085 3087 3090 3093 3096 3099 3101 3103 3105 3106 3109 3112 3114 3116 3118 3120 3122 3123 3124 3126 3129 3131 3132 3133 3134 3136 3138 3139 3141 3142 3143 3144 3146 3147 3149 3150 3151 3152 3154 3154 3155 3155 3156 3156 3156 3156 3156 3156 3158 3156 3148 3147 3150 3152 3154 3155 3155 3155 3155 3155 3155 3156 3157 3157 3158 3158
3028 3031 3034 3037 3040 3043 3046 3048 3051 3054 3058 3062 3065 3069 3071 3074 3077 3079 3083 3085 3080 3078 3081 3084 3087 3090 3093 3096 3099 3101 3102 3104 3106 3108 3111 3114 3116 3118 3120 3122 3124 3126 3127 3128 3129 3131 3133 3135 3137 3138 3139 3140 3141 3143 3145 3146 3148 3149 3150 3151 3152 3153 3154 3155 3155 3155 3155 3155 3155 3154 3157 3156 3148 3145 3148 3149 3151 3153 3153 3153 3153 3153 3154 3154 3154 3155 3156 3156
3026 3029 3031 3035 3038 3042 3045 3047 3050 3053 3057 3061 3064 3067 3070 3073 3076 3079 3083 3081 3074 3074 3078 3080 3084 3087 3090 3094 3096 3098 3100 3102 3104 3106 3109 3112 3114 3116 3118 3120 3123 3125 3126 3127 3129 3131 3133 3134 3136 3137 3138 3139 3140 3143 3144 3145 3147 3148 3150 3150 3152 3153 3153 3154 3154 3154 3155 3154 3153 3154 3155 3155 3147 3143 3146 3148 3149 3151 3151 3151 3151 3151 3152 3152 3152 3153 3153 3154
3024 3027 3030 3033 3036 3040 3043 3046 3049 3052 3056 3059 3062 3065 3069 3072 3074 3078 3081 3075 3070 3073 3075 3076 3080 3083 3086 3089 3091 3094 3098 3100 3102 3105 3107 3109 3112 3114 3117 3119 3122 3124 3125 3127 3128 3130 3131 3133 3134 3135 3136 3138 3140 3141 3142 3144 3146 3147 3148 3149 3151 3152 3152 3153 3153 3154 3155 3152 3151 3152 3153 3154 3149 3143 3144 3146 3147 3148 3149 3149 3150 3150 3150 3151 3151 3151 3151 3152
3021 3025 3028 3031 3034 3038 3041 3045 3048 3051 3054 3057 3061 3064 3066 3070 3072 3074 3073 3068 3068 3071 3071 3073 3077 3079 3082 3084 3087 3090 3094 3097 3100 3102 3104 3106 3109 3111 3114 3116 3118 3122 3124 3125 3126 3128 3129 3131 3132 3133 3134 3136 3138 3140 3141 3143 3144 3145 3147 3148 3150 3151 3152 3153 3152 3153 3154 3151 3149 3150 3150 3152 3149 3143 3143 3145 3146 3147 3148 3148 3148 3149 3149 3149 3150 3150 3150 3151
3019 3022 3026 3029 3033 3037 3040 3043 3046 3050 3052 3055 3059 3061 3063 3067 3069 3067 3064 3064 3067 3067 3067 3070 3073 3075 3079 3082 3085 3087 3090 3094 3097 3100 3101 3103 3105 3107 3109 3111 3113 3116 3119 3121 3123 3126 3128 3129 3130 3132 3133 3134 3136 3137 3139 3141 3142 3144 3145 3147 3149 3151 3152 3152 3152 3153 3151 3149 3148 3149 3150 3148 3143 3141 3143 3144 3145 3146 3147 3147 3147 3148 3148 3148 3148 3148 3149 3149
3018 3020 3023 3027 3031 3035 3038 3042 3045 3048 3050 3053 3056 3058 3062 3064 3060 3057 3058 3061 3063 3063 3065 3068 3070 3073 3077 3079 3082 3085 3089 3092 3095 3097 3100 3102 3104 3105 3107 3109 3111 3112 3113 3117 3120 3123 3126 3128 3128 3129 3130 3132 3133 3134 3136 3137 3140 3142 3143 3145 3146 3149 3151 3151 3152 3152 3149 3146 3147 3148 3149 3144 3139 3139 3140 3141 3141 3141 3143 3145 3146 3146 3147 3147 3147 3147 3147 3147
3016 3019 3021 3025 3028 3032 3035 3039 3042 3045 3048 3051 3053 3056 3059 3057 3051 3051 3056 3059 3060 3061 3063 3066 3068 3072 3075 3077 3079 3083 3087 3090 3093 3095 3097 3099 3101 3102 3104 3106 3109 3110 3112 3115 3118 3120 3122 3123 3123 3125 3127 3129 3131 3133 3134 3137 3139 3140 3142 3143 3143 3144 3146 3147 3148 3147 3145 3145 3146 3147 3147 3141 3137 3138 3138 3138 3138 3137 3140 3143 3145 3145 3146 3146 3146 3146 3146 3146
3014 3017 3020 3023 3026 3029 3032 3036 3039 3043 3045 3048 3050 3052 3051 3047 3045 3049 3053 3055 3058 3059 3061 3064 3068 3071 3073 3076 3078 3081 3084 3087 3090 3093 3095 3096 3097 3098 3100 3101 3104 3107 3109 3112 3115 3116 3118 3118 3119 3122 3125 3127 3130 3132 3134 3136 3138 3138 3140 3141 3141 3141 3142 3143 3144 3144 3144 3146 3145 3144 3141 3136 3136 3138 3137 3138 3138 3137 3139 3141 3143 3144 3144 3144 3144 3144 3144 3144
3012 3015 3018 3021 3024 3027 3030 3033 3036 3040 3042 3045 3047 3046 3043 3041 3043 3047 3050 3053 3057 3058 3060 3064 3067 3069 3071 3074 3076 3079 3081 3084 3087 3090 3091 3093 3094 3095 3097 3099 3101 3103 3104 3107 3110 3112 3115 3116 3118 3121 3123 3126 3129 3130 3132 3133 3134 3135 3136 3136 3138 3140 3141 3142 3143 3143 3145 3145 3140 3137 3135 3133 3135 3136 3136 3138 3138 3138 3140 3140 3141 3142 3141 3142 3142 3142 3142 3142
3009 3012 3016 3018 3021 3025 3028 3031 3034 3037 3039 3042 3042 3040 3038 3040 3043 3046 3049 3052 3055 3058 3059 3061 3064 3066 3067 3069 3072 3075 3078 3081 3084 3086 3088 3090 3091 3091 3094 3097 3099 3101 3102 3105 3108 3109 3112 3115 3117 3119 3121 3124 3126 3128 3130 3131 3131 3132 3133 3133 3136 3139 3140 3141 3142 3143 3146 3144 3137 3132 3131 3131 3133 3134 3134 3135 3135 3137 3138 3138 3140 3140 3140 3140 3140 3140 3140 3141
3006 3009 3013 3016 3019 3022 3026 3029 3032 3034 3037 3038 3037 3036 3036 3040 3043 3045 3048 3051 3053 3056 3058 3059 3061 3063 3064 3066 3068 3072 3075 3077 3080 3082 3084 3086 3086 3087 3090 3093 3095 3098 3101 3104 3107 3108 3111 3114 3116 3117 3119 3122 3124 3126 3127 3127 3128 3129 3130 3132 3135 3137 3137 3138 3140 3141 3143 3143 3136 3129 3128 3127 3128 3130 3132 3133 3133 3135 3136 3137 3137 3137 3138 3138 3138 3138 3139 3140
3003 3006 3009 3012 3015 3019 3022 3026 3029 3032 3034 3033 3032 3033 3035 3038 3041 3044 3046 3049 3051 3054 3056 3057 3059 3061 3063 3064 3066 3069 3072 3074 3076 3078 3080 3082 3082 3083 3086 3090 3092 3096 3099 3102 3105 3107 3109 3112 3113 3115 3117 3119 3121 3121 3120 3120 3123 3126 3128 3130 3132 3133 3134 3135 3137 3136 3137 3139 3137 3130 3126 3123 3123 3126 3129 3131 3132 3133 3134 3134 3134 3134 3135 3136 3136 3137 3138 3139
3001 3004 3006 3009 3012 3015 3018 3021 3024 3027 3028 3027 3027 3030 3032 3035 3039 3042 3044 3046 3049 3051 3053 3055 3057 3059 3061 3063 3066 3068 3070 3072 3074 3076 3077 3078 3080 3081 3083 3087 3090 3093 3098 3101 3103 3105 3107 3108 3110 3112 3114 3115 3115 3114 3114 3115 3119 3121 3124 3127 3128 3130 3132 3133 3134 3134 3133 3136 3136 3132 3125 3120 3121 3124 3126 3128 3130 3131 3131 3131 3131 3132 3133 3134 3135 3136 3136 3137
3000 3001 3003 3006 3009 3012 3014 3017 3019 3022 3023 3022 3024 3028 3030 3033 3037 3039 3042 3044 3046 3048 3050 3052 3055 3057 3059 3061 3064 3066 3068 3070 3072 3074 3075 3076 3077 3079 3081 3084 3087 3091 3095 3097 3098 3101 3103 3104 3106 3108 3109 3109 3109 3111 3113 3116 3118 3119 3120 3121 3122 3124 3127 3130 3131 3130 3131 3132 3133 3132 3124 3117 3120 3124 3125 3127 3129 3129 3129 3129 3130 3130 3131 3132 3133 3134 3134 3135
2997 2999 3001 3004 3007 3010 3012 3013 3015 3017 3018 3018 3021 3025 3028 3031 3034 3037 3039 3042 3044 3046 3048 3050 3053 3055 3057 3059 3061 3063 3066 3067 3069 3070 3071 3072 3074 3077 3080 3083 3086 3089 3091 3093 3095 3097 3100 3102 3103 3104 3105 3107 3109 3111 3112 3114 3116 3117 3118 3118 3119 3121 3121 3124 3125 3125 3129 3129 3129 3131 3125 3115 3117 3122 3122 3124 3126 3126 3127 3127 3127 3129 3130 3131 3131 3132 3132 3132
2995 2997 3000 3002 3005 3008 3009 3010 3012 3014 3014 3015 3019 3022 3025 3028 3032 3034 3037 3040 3042 3044 3046 3048 3050 3052 3054 3057 3059 3061 3063 3065 3066 3067 3069 3070 3073 3076 3079 3081 3084 3086 3088 3090 3092 3095 3097 3099 3100 3102 3104 3106 3108 3109 3110 3112 3113 3113 3113 3113 3115 3117 3118 3121 3123 3123 3126 3125 3125 3129 3124 3113 3114 3119 3120 3121 3123 3124 3124 3125 3126 3128 3128 3129 3130 3129 3130 3129
2993 2995 2997 3000 3003 3005 3006 3007 3009 3010 3012 3014 3017 3020 3023 3026 3029 3032 3035 3037 3040 3042 3044 3046 3048 3050 3052 3054 3056 3059 3061 3063 3064 3065 3067 3068 3071 3074 3076 3079 3081 3083 3084 3086 3088 3090 3092 3094 3096 3099 3103 3105 3107 3107 3106 3106 3106 3106 3107 3109 3112 3114 3118 3120 3121 3123 3123 3121 3122 3124 3118 3111 3114 3118 3118 3120 3122 3122 3123 3124 3126 3127 3127 3127 3128 3128 3128 3127
2990 2992 2995 2998 3000 3002 3002 3004 3006 3008 3010 3013 3016 3018 3021 3024 3027 3029 3032 3035 3037 3039 3041 3044 3046 3048 3050 3052 3054 3057 3058 3060 3061 3063 3064 3066 3068 3071 3073 3076 3078 3080 3082 3084 3085 3087 3089 3089 3090 3092 3095 3096 3096 3095 3093 3095 3099 3102 3104 3106 3109 3112 3114 3116 3119 3121 3118 3115 3116 3116 3111 3109 3114 3116 3117 3120 3121 3122 3123 3124 3124 3125 3125 3125 3126 3126 3125 3124
2987 2989 2992 2995 2997 2999 2999 3001 3004 3006 3008 3011 3014 3017 3019 3022 3025 3028 3030 3032 3034 3037 3039 3041 3043 3046 3048 3050 3052 3054 3055 3057 3059 3060 3062 3064 3066 3068 3070 3073 3076 3078 3080 3082 3083 3085 3086 3086 3086 3086 3086 3086 3087 3088 3089 3093 3098 3100 3101 3103 3106 3108 3111 3113 3116 3114 3111 3111 3110 3108 3108 3110 3111 3113 3115 3118 3119 3120 3121 3122 3122 3122 3122 3123 3123 3122 3121 3120
2985 2987 2989 2992 2994 2995 2996 2999 3001 3003 3005 3008 3011 3013 3016 3019 3022 3025 3028 3030 3032 3035 3037 3039 3041 3043 3045 3047 3049 3051 3053 3055 3056 3057 3060 3061 3064 3066 3068 3070 3072 3075 3077 3079 3080 3081 3082 3082 3083 3083 3084 3085 3088 3090 3092 3094 3096 3097 3098 3100 3102 3105 3107 3109 3108 3106 3107 3109 3104 3102 3108 3108 3106 3109 3113 3114 3115 3117 3118 3118 3118 3118 3118 3118 3118 3117 3116 3115
2982 2984 2986 2989 2991 2992 2993 2996 2998 3001 3003 3006 3008 3010 3013 3016 3019 3021 3025 3027 3030 3032 3034 3035 3037 3040 3042 3045 3047 3049 3051 3052 3053 3055 3057 3059 3061 3063 3065 3067 3069 3071 3074 3075 3077 3078 3079 3079 3080 3082 3083 3084 3087 3088 3090 3091 3093 3095 3096 3097 3099 3101 3102 3102 3102 3102 3104 3103 3099 3100 3106 3104 3101 3106 3110 3112 3113 3113 3113 3113 3113 3113 3113 3113 3113 3112 3111 3111
2980 2982 2984 2986 2988 2988 2990 2993 2997 2999 3001 3004 3007 3008 3010 3013 3016 3018 3021 3024 3025 3028 3030 3032 3034 3037 3040 3043 3045 3046 3047 3049 3050 3051 3054 3056 3058 3060 3062 3064 3066 3069 3071 3072 3074 3075 3076 3077 3078 3079 3080 3082 3083 3085 3086 3088 3089 3091 3092 3094 3096 3097 3098 3097 3098 3099 3100 3099 3097 3100 3101 3098 3099 3103 3105 3108 3110 3108 3107 3108 3108 3108 3107 3106 3107 3107 3107 3107
2978 2980 2982 2984 2985 2986 2989 2991 2994 2997 2999 3002 3004 3005 3008 3010 3013 3016 3018 3019 3021 3024 3026 3029 3032 3035 3038 3040 3042 3043 3045 3047 3048 3050 3052 3054 3056 3058 3060 3061 3063 3065 3068 3070 3071 3073 3073 3074 3075 3077 3078 3078 3079 3081 3082 3084 3085 3087 3088 3090 3092 3093 3093 3092 3092 3094 3095 3095 3096 3099 3097 3094 3095 3099 3102 3105 3104 3102 3102 3103 3104 3104 3102 3101 3101 3102 3103 3103
2976 2978 2979 2981 2983 2984 2987 2989 2992 2995 2997 2998 3000 3002 3005 3007 3009 3013 3015 3017 3019 3021 3024 3027 3030 3033 3035 3037 3038 3040 3043 3046 3047 3049 3051 3053 3055 3057 3058 3060 3061 3063 3064 3066 3068 3070 3071 3072 3073 3074 3075 3074 3076 3077 3078 3079 3081 3082 3083 3084 3085 3085 3085 3086 3087 3089 3091 3092 3094 3096 3092 3089 3091 3095 3099 3100 3098 3098 3099 3100 3100 3099 3098 3097 3097 3096 3096 3097
2974 2975 2977 2979 2980 2982 2984 2987 2990 2991 2993 2995 2997 3000 3002 3004 3008 3011 3013 3015 3017 3019 3022 3026 3029 3031 3032 3033 3036 3039 3043 3044 3045 3047 3049 3050 3052 3054 3055 3057 3059 3060 3062 3063 3065 3066 3068 3068 3070 3071 3071 3071 3073 3074 3075 3077 3078 3076 3075 3076 3078 3079 3080 3081 3082 3085 3087 3088 3090 3089 3087 3088 3091 3092 3094 3094 3095 3096 3095 3095 3095 3095 3093 3093 3092 3091 3091 3090